Regional Weather Roundup
Issued by NWS

Home | Current Version | Previous Version | Graphics & Text | Print | Product List | Glossary On
Versions: 1 2 3 4 5 6 7 8 9 10 11 12 13 14 15 16 17 18 19 20 21 22 23 24 25 26 27 28 29 30 31 32 33 34 35 36 37 38 39 40 41 42 43 44 45 46 47 48 49 50
000
ASUS45 KABQ 231210
RWRNM
NEW MEXICO REGIONAL WEATHER ROUNDUP
NATIONAL WEATHER SERVICE ALBUQUERQUE NM
600 AM MDT SAT JUL 23 2016

NOTE: "FAIR" MEANS FEW OR NO CLOUDS BELOW 12,000 FEET AGL WITH NO
       SIGNIFICANT WEATHER OR OBSTRUCTIONS TO VISION.

      THIS PRODUCT IS RELEASED AS TWO VERSIONS.  ONE VERSION NEAR
      THE TOP OF THE HOUR CONTAINING PRELIMINARY DATA FROM ALBUQUERQUE
      AND OTHER STATIONS.  A FINAL VERSION WITH ADDITIONAL DATA IS
      ISSUED ABOUT 10 MINUTES AFTER THE HOUR.

NMZ501-503-504-510>518-231300-
NORTHWEST PLATEAU/NORTHCENTRAL MOUNTAINS

CITY           SKY/WX    TMP DP  RH WIND       PRES   REMARKS
FARMINGTON     FAIR      64  46  52 N6        30.19S
6HR MIN TEMP:  63; 6HR MAX TEMP:  78;

LOS ALAMOS     FAIR      67  48  50 NW5       30.31S
SANTA FE       FAIR      70  47  43 N12       30.21F
6HR MIN TEMP:  70; 6HR MAX TEMP:  81; 6HR PCP: TRACE;

TAOS           FAIR      61  43  51 E3        30.30F
ANGEL FIRE     FAIR      53  45  75 CALM      30.41F

$$
NMZ402-403-502-505>509-231300-
WESTCENTRAL MOUNTAINS/SOUTHWEST MOUNTAINS

CITY           SKY/WX    TMP DP  RH WIND       PRES   REMARKS
GALLUP         FAIR      61  49  64 CALM      30.27S
6HR MIN TEMP:  59; 6HR MAX TEMP:  71;

GRANTS         FAIR      63  49  59 CALM      30.29R
SILVER CITY    FAIR      65  49  55 W6        30.15R

$$
NMZ407-409-411-412-231300-
SOUTHERN DESERTS

CITY           SKY/WX    TMP DP  RH WIND       PRES   REMARKS
LORDSBURG      FAIR      75  50  41 W9        30.07R
DEMING         FAIR      75  49  39 NE6       30.05R
6HR MIN TEMP:  75; 6HR MAX TEMP:  85;

LAS CRUCES     FAIR      74  42  31 CALM      30.08R
HOLLOMAN AFB   FAIR      71  43  35 NE7       30.05S
ALAMOGORDO     FAIR      72  41  33 NE7       30.07S
T OR C         FAIR      75  49  39 N5        30.11R
6HR MIN TEMP:  75; 6HR MAX TEMP:  86;


$$
NMZ519>523-231300-
CENTRAL VALLEYS/CENTRAL HIGHLANDS

CITY           SKY/WX    TMP DP  RH WIND       PRES   REMARKS
ALBUQUERQUE    FAIR      69  50  50 S3        30.16S
6HR MIN TEMP:  69; 6HR MAX TEMP:  85;

DOUBLE EAGLE   MOCLDY    68  52  56 W12       30.20S
MORIARTY ARPT  FAIR      60  41  49 S6        30.23S
6HR MIN TEMP:  59; 6HR MAX TEMP:  75;

CLINES CORNERS FAIR      62  44  51 W6        30.29S
6HR MIN TEMP:  60; 6HR MAX TEMP:  74;

BELEN          FAIR      67  49  52 NW5       30.16S
6HR MIN TEMP:  67; 6HR MAX TEMP:  82;

SOCORRO        FAIR      71  48  44 CALM      30.14S
6HR MIN TEMP:  71; 6HR MAX TEMP:  84;


$$
NMZ524>526-539-540-231300-
SOUTHCENTRAL MOUNTAINS

CITY           SKY/WX    TMP DP  RH WIND       PRES   REMARKS
RUIDOSO          N/A     64  41  42 W9        30.30F

$$
NMZ527>531-231300-
NORTHEAST HIGHLANDS/NORTHEAST PLAINS

CITY           SKY/WX    TMP DP  RH WIND       PRES   REMARKS
LAS VEGAS      FAIR      57  44  62 NE6       30.26S
6HR MIN TEMP:  55; 6HR MAX TEMP:  72;

RATON          FAIR     N/A N/A N/A NW5       30.20F
CLAYTON        FAIR      72  47  40 S9        30.10S
6HR MIN TEMP:  68; 6HR MAX TEMP:  78;


$$
NMZ532>537-231300-
EASTCENTRAL PLAINS

CITY           SKY/WX    TMP DP  RH WIND       PRES   REMARKS
TUCUMCARI      FAIR      75  49  39 SW8       30.06F
6HR MIN TEMP:  74; 6HR MAX TEMP:  82;

CANNON AFB     FAIR      67  52  57 SW6       30.12S
6HR MIN TEMP:  67; 6HR MAX TEMP:  72;

CLOVIS AIRPORT FAIR      63  48  59 SW7       30.12R

$$
NMZ028-029-538-231300-
SOUTHEAST PLAINS

CITY           SKY/WX    TMP DP  RH WIND       PRES   REMARKS
ROSWELL        FAIR      70  47  43 CALM      30.06R
6HR MIN TEMP:  68; 6HR MAX TEMP:  79;

ARTESIA        FAIR      70  52  52 SE3       30.06S
CARLSBAD       FAIR      72  53  51 CALM      30.03R
6HR MIN TEMP:  72; 6HR MAX TEMP:  81;

HOBBS          CLEAR     70  54  56 SE8       30.10R


$$




USA.gov is the U.S. government's official web portal to all federal, state and local government web resources and services.